GW1175 Weather Reports


time (UTC)temp
C
wind
direction
speed
KPH
gust
KPH
rain 1hr
cm
rain 24hr
cm
rain mn
cm
humidity
%
barometer
mb
20220812004125 30 93 0.0 3.2 0.00 0.00 0.00 48 1020.6
20220812003625 31 96 0.0 1.6 0.00 0.00 0.00 48 1020.5
20220812003124 31 115 1.6 1.6 0.00 0.00 0.00 48 1020.5
20220812002622 31 91 0.0 3.2 0.00 0.00 0.00 48 1020.4
20220812002122 31 124 1.6 3.2 0.00 0.00 0.00 46 1020.5
20220812001621 31 113 1.6 8.0 0.00 0.00 0.00 47 1020.4
20220812001121 31 106 0.0 0.0 0.00 0.00 0.00 47 1020.3
20220812000620 32 110 1.6 3.2 0.00 0.00 0.00 46 1020.1
20220812000119 32 118 0.0 3.2 0.00 0.00 0.00 47 1020.4
20220811235619 32 113 1.6 3.2 0.00 0.00 0.00 46 1020.3
20220811235118 32 89 0.0 1.6 0.00 0.00 0.00 45 1020.6
20220811234618 32 163 3.2 8.0 0.00 0.00 0.00 44 1020.4
20220811234117 32 122 0.0 1.6 0.00 0.00 0.00 43 1020.7
20220811233617 32 101 0.0 4.8 0.00 0.00 0.00 43 1020.6
20220811233117 32 96 0.0 3.2 0.00 0.00 0.00 44 1020.7
20220811232616 32 92 3.2 3.2 0.00 0.00 0.00 41 1020.4
20220811232115 32 107 0.0 3.2 0.00 0.00 0.00 41 1020.6
20220811231614 32 121 1.6 4.8 0.00 0.00 0.00 42 1020.6
20220811231113 32 108 0.0 4.8 0.00 0.00 0.00 40 1020.4
20220811230613 32 131 3.2 8.0 0.00 0.00 0.00 39 1020.5
20220811230111 32 159 1.6 4.8 0.00 0.00 0.00 40 1020.5
20220811225609 33 170 3.2 4.8 0.00 0.00 0.00 39 1020.5
20220811225108 32 172 3.2 4.8 0.00 0.00 0.00 39 1020.4
20220811224608 33 99 0.0 3.2 0.00 0.00 0.00 41 1020.5
20220811224107 33 96 3.2 4.8 0.00 0.00 0.00 41 1020.3
20220811223606 33 77 0.0 0.0 0.00 0.00 0.00 40 1020.4
20220811223105 33 130 3.2 4.8 0.00 0.00 0.00 38 1020.5
20220811222605 33 112 0.0 4.8 0.00 0.00 0.00 39 1020.6
20220811222104 33 124 3.2 4.8 0.00 0.00 0.00 38 1020.7
20220811221604 33 97 1.6 8.0 0.00 0.00 0.00 38 1020.6
20220811221103 33 140 3.2 8.0 0.00 0.00 0.00 40 1020.5
20220811220603 33 143 3.2 4.8 0.00 0.00 0.00 40 1020.5
20220811220101 33 124 3.2 4.8 0.00 0.00 0.00 42 1020.5
20220811215601 33 124 1.6 4.8 0.00 0.00 0.00 41 1020.6
20220811215059 33 153 1.6 3.2 0.00 0.00 0.00 40 1020.6
20220811214558 33 143 1.6 4.8 0.00 0.00 0.00 40 1020.9
20220811214057 33 142 1.6 3.2 0.00 0.00 0.00 41 1020.9
20220811213557 33 164 3.2 3.2 0.00 0.00 0.00 40 1020.9
20220811213055 33 106 0.0 3.2 0.00 0.00 0.00 43 1021.0
20220811212553 33 118 1.6 3.2 0.00 0.00 0.00 42 1021.0
20220811212052 33 104 1.6 1.6 0.00 0.00 0.00 42 1021.1
20220811211552 33 109 4.8 8.0 0.00 0.00 0.00 40 1021.1
20220811211051 33 114 1.6 3.2 0.00 0.00 0.00 39 1021.2
20220811210551 33 112 1.6 9.7 0.00 0.00 0.00 41 1021.4
20220811210050 33 97 1.6 4.8 0.00 0.00 0.00 40 1021.3
20220811205550 33 70 1.6 4.8 0.00 0.00 0.00 42 1021.3
20220811205048 33 94 0.0 4.8 0.00 0.00 0.00 40 1021.4
20220811204547 33 150 4.8 8.0 0.00 0.00 0.00 40 1021.4
20220811204045 33 140 3.2 3.2 0.00 0.00 0.00 41 1021.5
20220811203544 32 121 1.6 3.2 0.00 0.00 0.00 43 1021.5
20220811203043 32 120 0.0 1.6 0.00 0.00 0.00 42 1021.5
20220811202542 33 78 1.6 3.2 0.00 0.00 0.00 43 1021.5
20220811202041 33 138 0.0 1.6 0.00 0.00 0.00 41 1021.5
20220811201541 33 127 1.6 9.7 0.00 0.00 0.00 42 1021.6
20220811201040 33 101 0.0 3.2 0.00 0.00 0.00 41 1021.7
20220811200539 32 74 1.6 3.2 0.00 0.00 0.00 43 1021.7
20220811200038 33 193 3.2 8.0 0.00 0.00 0.00 41 1021.8
20220811195535 33 118 1.6 4.8 0.00 0.00 0.00 40 1021.7
20220811195034 33 125 3.2 8.0 0.00 0.00 0.00 40 1022.0
20220811194532 33 102 1.6 1.6 0.00 0.00 0.00 42 1021.9
20220811194031 32 133 1.6 4.8 0.00 0.00 0.00 41 1022.0
20220811193530 32 117 1.6 3.2 0.00 0.00 0.00 43 1022.1
20220811193028 32 117 4.8 4.8 0.00 0.00 0.00 43 1022.3
20220811192527 32 129 3.2 4.8 0.00 0.00 0.00 40 1022.2
20220811192027 32 185 4.8 4.8 0.00 0.00 0.00 42 1022.3
20220811191526 32 188 4.8 4.8 0.00 0.00 0.00 41 1022.1
20220811191026 33 203 4.8 4.8 0.00 0.00 0.00 41 1022.3
20220811190525 33 75 0.0 3.2 0.00 0.00 0.00 42 1022.4
20220811190024 32 90 0.0 4.8 0.00 0.00 0.00 43 1022.4
20220811185523 32 122 1.6 3.2 0.00 0.00 0.00 42 1022.5
20220811185022 32 150 3.2 4.8 0.00 0.00 0.00 42 1022.4
20220811184521 32 140 4.8 8.0 0.00 0.00 0.00 43 1022.4
20220811184021 33 172 4.8 8.0 0.00 0.00 0.00 41 1022.5
20220811183520 33 112 0.0 3.2 0.00 0.00 0.00 44 1022.5
20220811183019 32 143 4.8 8.0 0.00 0.00 0.00 42 1022.3
20220811182518 32 146 1.6 4.8 0.00 0.00 0.00 42 1022.8
20220811182017 32 139 3.2 4.8 0.00 0.00 0.00 44 1022.5
20220811181516 32 99 0.0 1.6 0.00 0.00 0.00 44 1022.7
20220811181016 32 85 0.0 0.0 0.00 0.00 0.00 46 1022.7
20220811180516 32 130 1.6 9.7 0.00 0.00 0.00 43 1022.8
20220811180014 32 108 0.0 3.2 0.00 0.00 0.00 46 1022.9
20220811175512 32 108 0.0 3.2 0.00 0.00 0.00 44 1023.1
20220811175010 32 120 1.6 8.0 0.00 0.00 0.00 44 1023.0
20220811174510 31 122 1.6 4.8 0.00 0.00 0.00 45 1022.9
20220811174009 32 118 1.6 4.8 0.00 0.00 0.00 44 1023.1
20220811173508 31 137 4.8 9.7 0.00 0.00 0.00 44 1023.2
20220811173007 31 123 3.2 4.8 0.00 0.00 0.00 45 1023.5
20220811172506 31 170 4.8 4.8 0.00 0.00 0.00 46 1023.5
20220811172005 32 104 1.6 8.0 0.00 0.00 0.00 46 1023.3
20220811171505 32 98 1.6 3.2 0.00 0.00 0.00 45 1023.6
20220811171003 31 98 0.0 1.6 0.00 0.00 0.00 47 1023.3
20220811170503 31 93 1.6 4.8 0.00 0.00 0.00 49 1023.6
20220811170002 31 101 1.6 1.6 0.00 0.00 0.00 50 1023.6
20220811165501 31 143 3.2 4.8 0.00 0.00 0.00 48 1023.5
20220811165002 30 95 0.0 3.2 0.00 0.00 0.00 50 1023.5
20220811164501 30 124 1.6 4.8 0.00 0.00 0.00 48 1023.6
20220811164000 31 118 1.6 1.6 0.00 0.00 0.00 49 1023.6
20220811163500 31 125 1.6 3.2 0.00 0.00 0.00 47 1023.8
20220811162958 30 104 1.6 4.8 0.00 0.00 0.00 48 1023.5
20220811162457 30 113 1.6 1.6 0.00 0.00 0.00 50 1023.8
20220811161956 30 140 1.6 3.2 0.00 0.00 0.00 48 1023.7
20220811161455 30 67 0.0 1.6 0.00 0.00 0.00 49 1023.7
20220811160953 30 138 1.6 3.2 0.00 0.00 0.00 51 1023.8
20220811160452 30 131 1.6 1.6 0.00 0.00 0.00 49 1024.0
20220811155951 30 117 0.0 0.0 0.00 0.00 0.00 49 1023.9
20220811155450 30 121 0.0 3.2 0.00 0.00 0.00 49 1023.9
20220811154949 29 110 0.0 1.6 0.00 0.00 0.00 51 1024.0
20220811154448 29 109 0.0 1.6 0.00 0.00 0.00 51 1024.1
20220811153947 28 115 0.0 4.8 0.00 0.00 0.00 51 1024.0
20220811153445 28 108 1.6 3.2 0.00 0.00 0.00 51 1024.1
20220811152944 28 108 0.0 1.6 0.00 0.00 0.00 52 1024.0
20220811152443 28 92 0.0 3.2 0.00 0.00 0.00 53 1024.0
20220811151942 28 98 0.0 1.6 0.00 0.00 0.00 54 1024.1
20220811151442 28 99 0.0 1.6 0.00 0.00 0.00 54 1024.1
20220811150940 27 87 0.0 1.6 0.00 0.00 0.00 55 1024.0
20220811150439 27 100 0.0 0.0 0.00 0.00 0.00 56 1024.1
20220811145939 27 81 0.0 1.6 0.00 0.00 0.00 59 1024.2
20220811145440 26 97 0.0 3.2 0.00 0.00 0.00 60 1024.1
20220811144938 26 106 0.0 1.6 0.00 0.00 0.00 61 1024.0
20220811144438 27 105 0.0 3.2 0.00 0.00 0.00 57 1024.1
20220811143937 27 109 0.0 4.8 0.00 0.00 0.00 58 1024.0
20220811143437 27 110 0.0 1.6 0.00 0.00 0.00 59 1023.9
20220811142936 27 111 0.0 1.6 0.00 0.00 0.00 60 1024.1
20220811142435 26 106 0.0 1.6 0.00 0.00 0.00 60 1024.1
20220811141934 27 82 0.0 0.0 0.00 0.00 0.00 61 1024.1
20220811141434 26 81 0.0 1.6 0.00 0.00 0.00 63 1024.1
20220811140932 26 126 0.0 1.6 0.00 0.00 0.00 61 1024.4
20220811140432 26 121 0.0 0.0 0.00 0.00 0.00 60 1024.0
20220811135931 26 121 0.0 0.0 0.00 0.00 0.00 61 1024.0
20220811135431 26 121 0.0 0.0 0.00 0.00 0.00 61 1024.1
20220811134929 26 113 0.0 0.0 0.00 0.00 0.00 64 1024.3
20220811134428 25 114 0.0 1.6 0.00 0.00 0.00 65 1024.1
20220811133928 25 112 0.0 0.0 0.00 0.00 0.00 66 1024.2
20220811133427 25 106 0.0 0.0 0.00 0.00 0.00 65 1024.1
20220811132926 25 106 0.0 0.0 0.00 0.00 0.00 67 1024.0
20220811132425 25 115 0.0 0.0 0.00 0.00 0.00 67 1024.1
20220811131924 24 114 0.0 0.0 0.00 0.00 0.00 69 1024.1
20220811131424 24 115 0.0 0.0 0.00 0.00 0.00 70 1024.0
20220811130923 24 113 0.0 0.0 0.00 0.00 0.00 70 1024.0
20220811130423 24 113 0.0 0.0 0.00 0.00 0.00 70 1024.1
20220811125919 23 113 0.0 0.0 0.00 0.00 0.00 73 1024.0
20220811125418 23 113 0.0 0.0 0.00 0.00 0.00 75 1024.0
20220811124916 22 113 0.0 0.0 0.00 0.00 0.00 78 1024.0
20220811124415 21 113 0.0 0.0 0.00 0.00 0.00 81 1023.8
20220811123915 20 113 0.0 0.0 0.00 0.00 0.00 86 1023.7
20220811123415 20 114 0.0 0.0 0.00 0.00 0.00 87 1023.8
20220811122913 19 114 0.0 0.0 0.00 0.00 0.00 87 1023.8
20220811122413 19 114 0.0 0.0 0.00 0.00 0.00 88 1023.8
20220811121910 18 114 0.0 0.0 0.00 0.00 0.00 89 1023.8
20220811121407 18 114 0.0 0.0 0.00 0.00 0.00 89 1023.6
20220811120907 18 114 0.0 0.0 0.00 0.00 0.00 89 1023.8
20220811120406 18 114 0.0 0.0 0.00 0.00 0.00 89 1023.5
20220811115906 18 114 0.0 0.0 0.00 0.00 0.00 89 1023.7
20220811115406 18 114 0.0 0.0 0.00 0.00 0.00 89 1023.6
20220811114905 18 114 0.0 0.0 0.00 0.00 0.00 89 1023.6
20220811114404 18 114 0.0 0.0 0.00 0.00 0.00 89 1023.5
20220811113904 18 114 0.0 0.0 0.00 0.00 0.00 88 1023.5
20220811113403 18 114 0.0 0.0 0.00 0.00 0.00 88 1023.6
20220811112902 18 114 0.0 0.0 0.00 0.00 0.00 88 1023.6
20220811112402 19 114 0.0 0.0 0.00 0.00 0.00 88 1023.6
20220811111902 19 114 0.0 0.0 0.00 0.00 0.00 88 1023.3
20220811111400 19 114 0.0 0.0 0.00 0.00 0.00 87 1023.3
20220811110859 19 114 0.0 0.0 0.00 0.00 0.00 88 1023.5
20220811110400 19 114 0.0 0.0 0.00 0.00 0.00 88 1023.3
20220811105859 19 114 0.0 0.0 0.00 0.00 0.00 88 1023.3
20220811105359 19 114 0.0 0.0 0.00 0.00 0.00 87 1023.5
20220811104858 19 114 0.0 0.0 0.00 0.00 0.00 88 1023.3
20220811104357 19 114 0.0 0.0 0.00 0.00 0.00 87 1023.2
20220811103855 19 114 0.0 0.0 0.00 0.00 0.00 87 1023.2
20220811103353 20 114 0.0 0.0 0.00 0.00 0.00 87 1023.3
20220811102851 20 114 0.0 0.0 0.00 0.00 0.00 86 1023.1
20220811102351 20 114 0.0 0.0 0.00 0.00 0.00 86 1023.5
20220811101850 20 114 0.0 0.0 0.00 0.00 0.00 86 1023.2
20220811101349 20 114 0.0 0.0 0.00 0.00 0.00 85 1023.2
20220811100848 20 114 0.0 0.0 0.00 0.00 0.00 85 1023.2
20220811100346 20 114 0.0 0.0 0.00 0.00 0.00 84 1023.2
20220811095844 20 114 0.0 0.0 0.00 0.00 0.00 84 1023.2
20220811095343 20 114 0.0 0.0 0.00 0.00 0.00 83 1023.2
20220811094841 20 114 0.0 0.0 0.00 0.00 0.00 83 1023.1
20220811094340 20 114 0.0 0.0 0.00 0.00 0.00 83 1023.0
20220811093840 20 114 0.0 0.0 0.00 0.00 0.00 83 1023.1
20220811093338 20 114 0.0 0.0 0.00 0.00 0.00 83 1023.0
20220811092839 20 114 0.0 0.0 0.00 0.00 0.00 83 1022.9
20220811092337 21 114 0.0 0.0 0.00 0.00 0.00 83 1023.1
20220811091837 20 114 0.0 0.0 0.00 0.00 0.00 83 1023.1
20220811091336 20 114 0.0 0.0 0.00 0.00 0.00 84 1023.0
20220811090835 20 114 0.0 0.0 0.00 0.00 0.00 84 1023.0
20220811090334 20 114 0.0 0.0 0.00 0.00 0.00 84 1023.1
20220811085834 20 114 0.0 0.0 0.00 0.00 0.00 84 1023.1
20220811085332 20 114 0.0 0.0 0.00 0.00 0.00 83 1023.0
20220811084832 20 114 0.0 0.0 0.00 0.00 0.00 84 1023.2
20220811084331 21 114 0.0 0.0 0.00 0.00 0.00 83 1023.3
20220811083830 21 114 0.0 0.0 0.00 0.00 0.00 83 1023.1
20220811083329 21 114 0.0 0.0 0.00 0.00 0.00 84 1023.3
20220811082827 21 114 0.0 0.0 0.00 0.00 0.00 83 1023.1
20220811082327 21 114 0.0 0.0 0.00 0.00 0.00 84 1023.1
20220811081826 21 114 0.0 0.0 0.00 0.00 0.00 83 1023.3
20220811081326 21 114 0.0 0.0 0.00 0.00 0.00 83 1023.2
20220811080824 21 114 0.0 0.0 0.00 0.00 0.00 83 1023.5
20220811080324 21 114 0.0 0.0 0.00 0.00 0.00 83 1023.3
20220811075823 21 114 0.0 0.0 0.00 0.00 0.00 82 1023.1
20220811075323 21 114 0.0 0.0 0.00 0.00 0.00 83 1023.3
20220811074823 21 114 0.0 0.0 0.00 0.00 0.00 82 1023.3
20220811074322 21 114 0.0 0.0 0.00 0.00 0.00 82 1023.2
20220811073821 21 114 0.0 0.0 0.00 0.00 0.00 81 1023.3
20220811073320 21 114 0.0 0.0 0.00 0.00 0.00 81 1023.1
20220811072819 21 114 0.0 0.0 0.00 0.00 0.00 81 1023.2
20220811072319 21 114 0.0 0.0 0.00 0.00 0.00 81 1023.2
20220811071818 21 114 0.0 0.0 0.00 0.00 0.00 80 1023.2
20220811071316 21 114 0.0 0.0 0.00 0.00 0.00 80 1023.3
20220811070813 22 114 0.0 0.0 0.00 0.00 0.00 80 1023.2
20220811070311 21 114 0.0 0.0 0.00 0.00 0.00 81 1023.3
20220811065811 22 114 0.0 0.0 0.00 0.00 0.00 81 1023.3
20220811065310 22 114 0.0 0.0 0.00 0.00 0.00 80 1023.5
20220811064809 22 114 0.0 0.0 0.00 0.00 0.00 79 1023.3
20220811064308 22 114 0.0 0.0 0.00 0.00 0.00 80 1023.2
20220811063808 22 114 0.0 0.0 0.00 0.00 0.00 80 1023.6
20220811063308 22 114 0.0 0.0 0.00 0.00 0.00 80 1023.2
20220811062806 22 114 0.0 0.0 0.00 0.00 0.00 80 1023.2
20220811062306 22 114 0.0 0.0 0.00 0.00 0.00 81 1023.3
20220811061805 22 114 0.0 0.0 0.00 0.00 0.00 81 1023.5
20220811061304 22 114 0.0 0.0 0.00 0.00 0.00 80 1023.5
20220811060804 22 114 0.0 0.0 0.00 0.00 0.00 79 1023.3
20220811060303 22 114 0.0 0.0 0.00 0.00 0.00 79 1023.3
20220811055802 22 114 0.0 0.0 0.00 0.00 0.00 78 1023.3
20220811055302 22 114 0.0 0.0 0.00 0.00 0.00 77 1023.5
20220811054801 23 114 0.0 0.0 0.00 0.00 0.00 76 1023.3
20220811054300 23 114 0.0 0.0 0.00 0.00 0.00 76 1023.1
20220811053759 23 114 0.0 0.0 0.00 0.00 0.00 75 1023.2
20220811053258 23 114 0.0 0.0 0.00 0.00 0.00 75 1023.5
20220811052757 23 114 0.0 0.0 0.00 0.00 0.00 74 1023.5
20220811052256 23 114 0.0 0.0 0.00 0.00 0.00 73 1023.3
20220811051755 23 114 0.0 0.0 0.00 0.00 0.00 73 1023.1
20220811051254 23 114 0.0 0.0 0.00 0.00 0.00 73 1023.2
20220811050753 24 114 0.0 0.0 0.00 0.00 0.00 72 1023.3
20220811050252 24 114 0.0 0.0 0.00 0.00 0.00 71 1023.3
20220811045751 24 114 0.0 0.0 0.00 0.00 0.00 71 1023.1
20220811045250 25 114 0.0 0.0 0.00 0.00 0.00 70 1023.1
20220811044749 25 114 0.0 0.0 0.00 0.00 0.00 69 1023.3
20220811044248 25 114 0.0 0.0 0.00 0.00 0.00 69 1023.3
20220811043748 25 114 0.0 0.0 0.00 0.00 0.00 68 1023.3
20220811043247 25 114 0.0 0.0 0.00 0.00 0.00 68 1023.3
20220811042747 25 114 0.0 0.0 0.00 0.00 0.00 68 1023.2
20220811042246 25 114 0.0 0.0 0.00 0.00 0.00 67 1023.2
20220811041745 25 114 0.0 0.0 0.00 0.00 0.00 66 1023.0
20220811041243 25 114 0.0 0.0 0.00 0.00 0.00 66 1023.2
20220811040742 25 114 0.0 0.0 0.00 0.00 0.00 66 1023.1
20220811040242 25 114 0.0 0.0 0.00 0.00 0.00 66 1023.0
20220811035741 25 114 0.0 0.0 0.00 0.00 0.00 66 1023.0
20220811035241 26 114 0.0 0.0 0.00 0.00 0.00 66 1023.0
20220811034740 26 114 0.0 0.0 0.00 0.00 0.00 65 1023.2
20220811034240 26 114 0.0 0.0 0.00 0.00 0.00 65 1023.2
20220811033739 26 114 0.0 1.6 0.00 0.00 0.00 65 1023.1
20220811033238 26 114 0.0 0.0 0.00 0.00 0.00 64 1023.2
20220811032738 26 114 0.0 1.6 0.00 0.00 0.00 64 1023.2
20220811032237 26 114 0.0 0.0 0.00 0.00 0.00 63 1023.0
20220811031736 26 114 0.0 3.2 0.00 0.00 0.00 63 1023.1
20220811031235 26 105 0.0 0.0 0.00 0.00 0.00 63 1023.0
20220811030735 26 105 0.0 0.0 0.00 0.00 0.00 62 1022.9
20220811030234 27 103 0.0 1.6 0.00 0.00 0.00 61 1022.9
20220811025732 27 118 0.0 0.0 0.00 0.00 0.00 61 1022.8
20220811025232 27 121 0.0 3.2 0.00 0.00 0.00 61 1022.7
20220811024731 27 117 0.0 0.0 0.00 0.00 0.00 60 1022.8
20220811024229 27 117 0.0 0.0 0.00 0.00 0.00 60 1022.8
20220811023729 27 117 0.0 0.0 0.00 0.00 0.00 60 1022.6
20220811023228 27 117 0.0 0.0 0.00 0.00 0.00 60 1022.6
20220811022727 27 117 0.0 0.0 0.00 0.00 0.00 59 1022.5
20220811022226 27 117 0.0 1.6 0.00 0.00 0.00 58 1022.6
20220811021723 27 117 0.0 0.0 0.00 0.00 0.00 58 1022.4
20220811021222 28 117 0.0 1.6 0.00 0.00 0.00 57 1022.3
20220811020721 28 117 0.0 1.6 0.00 0.00 0.00 56 1022.4
20220811020220 28 95 0.0 1.6 0.00 0.00 0.00 56 1022.4
20220811015719 28 102 1.6 1.6 0.00 0.00 0.00 56 1022.1
20220811015219 28 105 0.0 3.2 0.00 0.00 0.00 55 1022.3
20220811014718 28 113 0.0 1.6 0.00 0.00 0.00 54 1022.3
20220811014217 28 94 1.6 8.0 0.00 0.00 0.00 54 1022.2
20220811013717 28 131 1.6 3.2 0.00 0.00 0.00 55 1022.0
20220811013216 28 113 0.0 1.6 0.00 0.00 0.00 55 1022.0
20220811012716 28 108 0.0 1.6 0.00 0.00 0.00 55 1021.9
20220811012216 29 106 0.0 1.6 0.00 0.00 0.00 55 1021.8
20220811011714 29 103 0.0 1.6 0.00 0.00 0.00 54 1021.8
20220811011213 29 121 1.6 3.2 0.00 0.00 0.00 53 1021.7
20220811010712 29 107 0.0 1.6 0.00 0.00 0.00 54 1021.9
20220811010211 30 124 1.6 3.2 0.00 0.00 0.00 52 1021.9
20220811005710 30 114 0.0 1.6 0.00 0.00 0.00 53 1021.9
20220811005209 30 134 3.2 3.2 0.00 0.00 0.00 52 1021.7
20220811004709 30 115 0.0 1.6 0.00 0.00 0.00 53 1021.9